Flag for U.S.A. Weather past 2 weeks in Mansfield, Texas, U.S.A.

Now
57 °F

Fog.


Feels Like: 55 °F
Forecast: 56 / 72 °F
Wind: 9 mph from Northeast

Location: Burleson-Rendon


UV Index: 5 (Moderate)

Visibility: 2 mi


Pressure: 30.25 "Hg

Humidity: 94%

Dew point: 55 °F

Location of MansfieldLocation

Historic Weather in Mansfield

°F

Mansfield temperature yesterday

Maximum temperature yesterday: 63 °F (at 2:57 PM)
Minimum temperature yesterday: 48 °F (at 6:46 AM)
Average temperature yesterday: 55 °F

Past Weeks' High & Low Weather Summary

 TemperatureHumidityPressure
High86 °F (Apr 10, 3:50 PM)100% (Apr 18, 6:48 AM)30.35 "Hg (Apr 18, 6:48 AM)
Low31 °F (Apr 15, 5:35 AM)19% (Apr 15, 1:48 PM)29.59 "Hg (Apr 13, 8:35 PM)
Average59 °F64%30.00 "Hg
* Reported Apr 3 7:50 AM — Apr 18 7:51 AM, Mansfield, Weather by CustomWeather, © 2014

Note: Actual official high and low records may vary slightly from our data, if they occured in-between our weather recording intervals... More about our weather records

Advertising

Historic Weather Conditions — Data for Previous 24 hours

 ConditionsComfort  
Time TempWeatherWind HumidityBarometerVisibility
7:51 AM
Apr 18
52 °FFog.7 mph100%30.24 "Hg2 mi
6:48 AM66 °FFog.No wind100%30.22 "Hg1 mi
6:35 AM50 °FFog.No wind95%30.21 "Hg0 mi
6:15 AM54 °FFog.No wind95%30.20 "Hg2 mi
5:55 AM54 °FFog.No wind95%30.20 "Hg1 mi
5:35 AM54 °FFog.No wind94%30.20 "Hg2 mi
5:15 AM55 °FFog.No wind94%30.20 "Hg3 mi
4:55 AM55 °FFog.No wind94%30.19 "Hg3 mi
4:35 AM55 °FFog.No wind94%30.19 "Hg3 mi
4:15 AM55 °FFog.No wind95%30.20 "Hg2 mi
3:55 AM54 °FFog.3 mph95%30.20 "Hg2 mi
3:35 AM54 °FFog.5 mph95%30.20 "Hg2 mi
3:15 AM54 °FFog.5 mph94%30.20 "Hg2 mi
2:55 AM54 °FFog.5 mph95%30.20 "Hg2 mi
2:35 AM54 °FFog.6 mph94%30.20 "Hg2 mi
2:15 AM56 °FFog.3 mph93%30.20 "Hg3 mi
1:55 AM56 °FFog.No wind94%30.21 "Hg3 mi
1:35 AM56 °FFog.No wind95%30.22 "Hg2 mi
1:15 AM56 °FFog.3 mph94%30.22 "Hg2 mi
12:55 AM56 °FFog.3 mph94%30.22 "Hg2 mi
12:35 AM57 °FFog.No wind94%30.22 "Hg2 mi
12:15 AM57 °FFog.No wind94%30.23 "Hg3 mi
11:55 PM
Apr 17
57 °FFog.No wind93%30.22 "Hg3 mi
11:35 PM58 °FFog.No wind92%30.22 "Hg3 mi
11:15 PM57 °FFog.No wind93%30.22 "Hg3 mi
10:55 PM57 °FFog.No wind92%30.22 "Hg3 mi
10:35 PM57 °FFog.No wind93%30.22 "Hg4 mi
10:15 PM58 °FFog.5 mph92%30.21 "Hg4 mi
9:55 PM58 °FLight rain. Mostly cloudy.6 mph92%30.20 "Hg5 mi
9:35 PM58 °FLight rain. Overcast.5 mph92%30.20 "Hg5 mi
9:15 PM58 °FLight rain. Overcast.5 mph90%30.19 "Hg5 mi
8:55 PM59 °FRain. Overcast.5 mph86%30.17 "Hg7 mi
8:35 PM59 °FLight rain. Mostly cloudy.6 mph84%30.17 "Hg7 mi
8:15 PM60 °FCloudy.5 mph81%30.16 "Hg7 mi
7:55 PM61 °FMore clouds than sun.8 mph79%30.15 "Hg4 mi
7:35 PM61 °FMostly cloudy.7 mph77%30.15 "Hg4 mi
7:15 PM61 °FCloudy.7 mph77%30.15 "Hg5 mi
5:48 PM63 °FMore clouds than sun.10 mph73%30.14 "Hg5 mi
4:48 PM63 °FMostly cloudy.10 mph73%30.13 "Hg5 mi
3:53 PM63 °FMore clouds than sun.12 mph73%30.13 "Hg5 mi
2:57 PM63 °FFog.9 mph73%30.14 "Hg5 mi
2:04 PM61 °FFog.8 mph83%30.15 "Hg4 mi
1:53 PM59 °FFog.10 mph88%30.16 "Hg4 mi
12:52 PM61 °FFog.12 mph83%30.17 "Hg5 mi
11:48 AM55 °FFog.7 mph94%30.17 "Hg2 mi
10:50 AM57 °FFog.9 mph82%30.16 "Hg5 mi
9:54 AM57 °FFog.7 mph77%30.15 "Hg5 mi
Weather by CustomWeather, © 2014

See weather overview